Preview of NWS' New Version of Forecast
This preview is not operational and should not be used for support decisions.
Latest weather observations around

Hagerstown, Washington County Regional Airport (KHGR)

Using International System of Units (Switch to English Units)
Date/ Time (EDT) Wind (kph) Vis. (km) Weather Sky Cond. Temp (°C) Rel. Humidity Wind Chill (°C) Heat Index (°C) Pressure Precip. (cm)
Air Dwpt 6 hour Altimeter (hPa) Sea level (hPa) 1 hr 3 hr 6 hr
Max Min
Apr 20 21:53 S 22 16.09 Clear CLR 16 2     38%     1007.8 1008.3      
Apr 20 20:53 S 24 16.09 Cloudy OVC095 17 4     41%     1007.1 1007.5      
Apr 20 19:53 S 21 16.09 Clear CLR 18 4     38%     1005.8 1006.3      
Apr 20 18:53 S 28 16.09 Clear CLR 20 3     32%     1004.4 1005      
Apr 20 17:53 SSW 26 16.09 Mostly Clear FEW070 21 4     33%     1003.7 1004.3      
Apr 20 16:53 S 30 16.09 Clear CLR 22 4     30%   21 1002.4 1002.8      
Apr 20 15:53   16.09 Clear CLR 22 6     34%   21 1002 1002.3      
Apr 20 14:53 SSW 30 16.09 Mostly Clear FEW055 22 6     34%   21 1002.4 1002.7      
Apr 20 13:53   16.09 Partly Cloudy SCT040 22 8     41%   22 1001.7 1002.3     0
Apr 20 12:53 SSE 35 16.09 Mostly Clear and Windy FEW047 22 8     41%   22 1002 1002.3      
Apr 20 11:53 SSE 28 16.09 Mostly Clear FEW044 22 10     47%   21 1001.7 1002.1      
Apr 20 10:53 SSE 37 16.09 Mostly Clear and Windy FEW036 21 12     55%     1001.7 1002 0 0  
Apr 20 09:53 SSE 24 16.09 Mostly Cloudy FEW023 SCT028 BKN070 21 14     68%     1000.7 1001.1      
Apr 20 09:39 SSE 24 16.09 Partly Cloudy FEW017 SCT023 21 15     70%     1000.7        
Apr 20 09:14 SSE 26 16.09 Mostly Cloudy FEW017 BKN022 BKN031 21 16     75%     1000.7        
Apr 20 08:53 SSE 22 16.09 Mostly Cloudy SCT017 SCT070 BKN080 21 16     75%     1000.7 1001.1      
Apr 20 07:53 SE 21 16.09 Mostly Clear FEW090 19 16     81%     1000.3 1000.8      
Apr 20 06:53 SE 18 16.09 Mostly Cloudy FEW020 SCT070 BKN085 19 16     81%     1000.3 1000.7      
Apr 20 05:53 SE 17 16.09 Mostly Clear FEW022 18 16     84%     1000 1000.4      
Apr 20 04:53   16.09 Mostly Cloudy SCT047 BKN055 19 16     81%     1000 1000.6      
Apr 20 04:30 SE 22 16.09 Mostly Cloudy FEW016 SCT040 BKN049 19 16     81%     1000.3        
Apr 20 04:00 SE 17 16.09 Cloudy SCT016 BKN023 OVC060 19 16     84%     1000.7        
Apr 20 03:53 SE 13 16.09 Cloudy FEW016 BKN041 OVC055 19 16     84%     1000.7 1001.2      
Apr 20 03:26 SE 21 16.09 Cloudy FEW014 OVC055 19 16     84%     1000.7        
Apr 20 03:05 SSE 21 16.09 Cloudy BKN014 BKN023 OVC060 19 16     84%     1001        
Apr 20 02:53 SSE 18 16.09 Cloudy FEW014 BKN018 OVC029 19 17     84%     1001 1001.4      
Apr 20 02:14 S 21 16.09 Cloudy SCT022 BKN028 OVC035 20 16     78%     1001        
Apr 20 01:53 SSE 28 16.09 Cloudy FEW028 BKN038 OVC065 20 16     78%     1001 1001.3     2
Apr 20 00:53 SSE 26 16.09 Mostly Clear FEW100 19 17     84%     1000.7 1001.1      
Apr 19 23:53 SSE 17 16.09 Clear CLR 19 17     84%     1000.7 1001.1      
Apr 19 22:53 SSE 21 16.09 Mostly Clear FEW036 19 17     87%     1001 1001.3   2  
Apr 19 21:53 E 9 16.09 Mostly Cloudy FEW100 BKN110 18 16     90%     1000.7 1001 0    
Apr 19 20:53 SW 8 6.44 Light Rain and Fog/Mist FEW005 BKN046 OVC095 18 16     90%     1001.7 1002.3 2    
Apr 19 20:33 Calm 4.83 Rain and Fog/Mist SCT005 BKN017 OVC035 18 16     90%     1002   2    
Apr 19 20:27 S 11 1.61 Rain and Fog/Mist FEW005 OVC014 18 16     90%     1002   2    
Apr 19 20:21 5 0.8 Heavy Rain and Fog BKN007 OVC013 18 16     90%     1001.7   2    
Apr 19 20:09 5 1.21 Heavy Rain and Fog/Mist FEW005 BKN013 OVC020 18 16     90%     1001.7   1    
Apr 19 20:05 WNW 13 2.41 Heavy Rain and Fog/Mist BKN013 OVC020 18 16     90%     1001.4   0    
Apr 19 19:53 S 8 1.61 Heavy Rain and Fog/Mist FEW007 BKN015 OVC020 18 17     90%     1000.7 1001.2 1   2
Apr 19 19:45 WSW 9 2.82 Heavy Rain FEW007 BKN015 OVC022 19 16     84%     1000.7   1    
Apr 19 19:36 WSW 17 6.44 Rain and Fog/Mist FEW007 BKN017 OVC100 19 17     87%     1001   0    
Apr 19 19:29 SW 15 4.83 Rain and Fog/Mist FEW009 BKN030 OVC095 21 19     87%     1001.4   0    
Apr 19 18:53 SSE 28 12.87 Light Rain SCT021 BKN030 OVC085 22 18     81%   22 1000.7 1001 0    
Apr 19 17:53 SSE 24 16.09 Mostly Clear FEW016 22 18     81%   22 1000.7 1000.9      
Apr 19 16:53 SSE 22 16.09 Mostly Cloudy FEW008 SCT026 BKN100 21 18     87%     1000.7 1001.3 0 1  
Apr 19 16:29 S 21 4.83 Light Rain and Fog/Mist FEW009 BKN023 OVC034 20 18     90%     1001.4   0    
Apr 19 16:23 S 18 4.02 Rain and Fog/Mist BKN023 BKN032 OVC039 20 18     87%     1001.4   0    
Apr 19 16:04 S 18 11.27 Light Rain FEW012 BKN040 OVC080 20 18     87%     1001.7   0    
Apr 19 15:57 SSE 22 4.83 Light Rain and Fog/Mist FEW012 BKN029 OVC070 20 18     87%     1001.7   0    
Apr 19 15:55 SSE 26 4.02 Rain and Fog/Mist FEW012 BKN029 OVC044 20 18     87%     1002   0    
Apr 19 15:53 SSE 24 2.82 Rain and Fog/Mist FEW013 BKN032 OVC041 20 18     90%     1002 1002.5 1    
Apr 19 15:46 SSE 26 1.61 Heavy Rain and Fog/Mist FEW013 BKN025 OVC040 20 18     87%     1002.4   1    
Apr 19 15:39 SSE 28 2.82 Rain SCT013 BKN034 OVC046 21 18     84%     1002.7   0    
Apr 19 15:33 SE 24 4.83 Light Rain FEW013 BKN035 OVC050 21 18     84%     1002.4   0    
Apr 19 15:21 SSE 21 3.22 Rain and Fog/Mist FEW012 BKN026 OVC055 21 18     87%     1002.7   0    
Apr 19 14:53 SE 22 6.44 Light Rain FEW025 BKN037 OVC070 21 18     84%     1003.4 1003.8 0    
Apr 19 14:37 SE 22 3.22 Rain FEW024 BKN049 OVC075 21 18     84%     1003.7   0    
Apr 19 13:53 SSE 22 16.09 Mostly Cloudy FEW030 SCT037 BKN060 22 17     71%   22 1004.4 1004.7      
Apr 19 12:53 SSE 22 16.09 Cloudy BKN095 OVC110 22 16     68%   22 1005.4 1005.9      
Apr 19 11:53 S 18 16.09 Mostly Cloudy FEW095 BKN120 22 16     68%   22 1006.4 1006.7      
Apr 19 10:53 S 24 16.09 Partly Cloudy FEW035 SCT100 22 15     66%   22 1006.1 1006.5      
Apr 19 09:53 S 24 16.09 Mostly Cloudy FEW035 BKN100 21 14     66%     1006.4 1006.8      
Apr 19 08:53 S 24 16.09 Mostly Cloudy BKN120 21 14     66%     1006.4 1007      
Apr 19 07:53 S 24 16.09 Clear CLR 20 14     68%     1006.1 1006.5      
Apr 19 06:53 S 21 16.09 Mostly Cloudy BKN047 19 13     70%     1005.8 1006.3      
Apr 19 05:53 SSE 24 16.09 Mostly Clear FEW045 19 13     68%     1005.4 1005.7      
Apr 19 04:53 SSE 22 16.09 Clear CLR 19 13     66%     1006.1 1006.6      
Apr 19 03:53 S 22 16.09 Clear CLR 20 12     61%     1006.4 1006.8      
Apr 19 02:53 S 26 16.09 Clear CLR 21 12     55%     1006.1 1006.6      
Apr 19 01:53 S 26 16.09 Clear CLR 22 11     51%   21 1006.8 1007.3      
Apr 19 00:53 S 22 16.09 Clear CLR 22 11     48%   22 1007.1 1007.8      
Apr 18 23:53 S 30 16.09 Clear CLR 23 10     43%   23 1007.5 1008      
Apr 18 22:53 S 28 16.09 Clear CLR 23 9     41%   23 1007.8 1008.4      
Apr 18 21:53 S 24 16.09 Clear CLR 23 11     46%   23 1008.1 1008.7      
Apr 18 20:53 SSE 15 16.09 Clear CLR 22 12     51%   22 1007.8 1008.4      
Apr 18 19:53 SE 11 16.09 Clear CLR 23 12     48%   23 1007.8 1008.3      
Apr 18 18:53 S 18 16.09 Clear CLR 24 12     45%   24 1008.5 1009.1      
Apr 18 17:53 SSE 28 16.09 Clear CLR 24 11     45%   24 1009.2 1009.9      
Apr 18 16:53 SSE 30 16.09 Clear CLR 24 12     48%   24 1009.8 1010.4      
Apr 18 15:53 SSE 22 16.09 Clear CLR 22 12     53%   22 1010.8 1011.5      
Apr 18 14:53 SSE 17 16.09 Clear CLR 21 12     55%     1011.9 1012.8      
Apr 18 13:53 SSE 22 16.09 Clear CLR 19 11     59%     1013.2 1014.1      
Apr 18 12:53 SSE 13 16.09 Clear CLR 17 11     67%     1014.2 1014.9      
Apr 18 12:24 S 13 16.09 Partly Cloudy SCT018 17 11     67%     1014.6        
Apr 18 11:53 S 15 16.09 Cloudy BKN017 OVC100 16 11     72%     1015.6 1016.4      
Apr 18 10:53 SSW 8 16.09 Cloudy OVC015 14 10     75%     1015.6 1016.6      
Apr 18 10:34 Calm 16.09 Cloudy OVC015 14 10     75%     1015.9        
Apr 18 09:53 SE 8 16.09 Cloudy OVC013 13 9     77%     1015.9 1016.7      
Apr 18 09:09 SE 8 16.09 Mostly Cloudy BKN014 13 9     80%     1016.3        
Apr 18 08:53 SSE 5 16.09 Mostly Cloudy BKN016 13 9     80%     1016.6 1017.5      
Apr 18 07:53 Calm 16.09 Clear CLR 12 9     83%     1016.9 1017.7 0   0
Apr 18 06:53 ESE 13 11.27 Light Rain FEW017 FEW070 OVC100 11 8     83%     1016.3 1017.1 0    
Apr 18 06:49 E 8 6.44 Light Rain SCT017 BKN085 OVC100 11 8     82%     1016.6   0    
Apr 18 06:00 NE 8 16.09 Mostly Cloudy BKN018 10 7     83%     1016.9        
Apr 18 05:53 Calm 16.09 Partly Cloudy SCT019 10 7     83%     1016.9 1017.9      
Apr 18 04:53 E 5 16.09 Clear CLR 11 7     79%     1016.6 1017.5      
Apr 18 03:53 E 8 16.09 Clear CLR 12 7     74%     1017.3 1018.2      
Apr 18 02:53 Calm 16.09 Clear CLR 12 8     77%     1017.6 1018.6      
Apr 18 01:53 ENE 5 16.09 Clear CLR 12 7     74%     1018 1019      
Apr 18 00:53 E 5 16.09 Clear CLR 12 6     66%     1018.6 1019.5      
Apr 17 23:53 E 8 16.09 Clear CLR 13 6     62%     1019 1019.7      
Apr 17 22:53 ESE 9 16.09 Clear CLR 13 5     57%     1018.3 1019.1      
May 15 02:07 S 11 16.09 Cloudy BKN055 OVC065 19 17     90%     1014.6        
May 14 18:53 SSW 11 8.05 Light Rain and Fog/Mist FEW090 OVC110 22 20     87%   23 1014.2 1014.7 0    
May 13 23:01 Calm 8.05 Light Rain and Fog/Mist SCT007 BKN019 OVC110 16 15     96%     1016.9   0    
May 13 03:46 NNE 8 3.22 Rain and Fog/Mist SCT008 BKN029 OVC049 17 17     97%     1018.3   1    
May 13 03:18 NW 13 3.22 Thunderstorms and Rain and Fog/Mist FEW007 BKN031 OVC042 17 17     97%     1018.6   1    
May 12 18:53 N 24 8.05 Light Rain FEW075 BKN090 OVC120 22 17     76%   22   1016.6 0    
May 12 15:53 S 15 16.09 Clear CLR 30 17     46%   30 1013.6 1014.1      
May 12 08:53 NW 5 16.09 Clear CLR 15 11     78%     1019.3 1019.9      
May 12 03:53 NNW 21 16.09 Clear   15 8     64%     1017.3 1018      
May 12 00:53 NW 9 16.09 Mostly Clear FEW075 16 11     70%     1017.6 1018.2      
Jun 11 15:53 W 21 16.09 Clear CLR 33 16     36%   33 1019 1019.2      
Jun 11 12:53 WSW 21 16.09 Clear CLR 31 17     42%   31 1020 1020.2      
Jun 11 03:53 S 11 16.09 Clear CLR 21 16     71%     1018.6 1018.7      
Jun 08 13:53 NE 11 16.09 Mostly Cloudy BKN060 23 8     37%   23 1013.9 1014.7